ECMWFFLT2_850_thetae_000.txt.gz
Theta_e
308 308 307 307 307 307 306 306 305 304 302 302 301 300 300 299 299 299 298 298 297 297 296 295 295 294 294 294 294 294 294 294 294 293 293 293 293 293 294 294 294 293 293 293 293 293 293 293 293 294 294 294
308 308 307 307 307 307 307 306 306 305 304 303 302 301 301 300 300 300 299 298 297 297 297 296 294 294 294 293 294 294 293 293 294 293 293 293 293 293 294 294 293 293 293 293 293 293 293 293 293 293 293 293
308 308 307 307 307 307 307 307 306 306 305 304 303 302 301 301 301 301 300 299 298 297 297 296 294 294 293 293 293 293 293 293 293 293 293 293 293 293 293 293 292 292 292 292 292 292 293 293 293 293 293 293
307 308 308 307 307 307 307 306 306 306 305 305 304 304 303 302 302 301 301 300 299 298 298 297 295 293 293 292 292 292 292 292 292 292 292 292 292 292 292 292 292 291 291 291 291 292 292 292 292 292 292 292
307 307 307 307 307 307 307 306 306 306 305 305 305 304 303 303 303 302 301 300 299 298 299 298 294 293 292 292 292 292 292 292 292 292 292 291 292 292 292 291 291 291 291 291 291 291 291 291 291 291 292 292
307 307 307 307 307 307 307 306 306 306 305 305 305 304 304 304 303 302 301 300 299 298 299 298 294 293 293 292 292 292 292 292 292 291 292 292 292 292 292 291 291 291 291 291 291 291 291 291 291 291 292 292
307 307 307 307 307 307 307 306 306 306 305 305 305 304 304 304 303 302 302 301 299 298 299 297 294 293 292 292 291 292 292 292 291 291 292 292 292 292 292 291 291 291 291 290 290 290 290 290 291 291 291 292
307 307 307 307 307 307 307 306 306 306 305 305 305 304 304 304 303 303 302 301 300 299 299 297 295 293 292 292 292 292 292 291 291 291 292 292 292 292 292 291 291 291 291 290 290 290 290 290 290 291 291 291
307 307 306 307 307 307 307 306 306 306 305 305 304 304 304 304 303 303 302 301 300 300 299 298 296 294 293 292 292 292 291 291 291 291 291 291 291 292 291 291 291 291 291 290 290 290 290 290 290 290 291 291
307 306 306 306 306 306 306 306 306 306 305 305 304 304 304 303 303 303 302 301 301 300 299 298 296 295 293 292 292 291 291 290 290 291 291 291 291 291 291 291 291 291 291 290 290 290 290 290 290 290 290 291
307 306 306 306 306 306 306 306 306 306 306 305 305 304 304 303 303 303 302 302 301 301 300 298 296 295 293 292 291 291 290 290 290 290 290 291 291 291 291 291 291 291 291 290 290 290 290 290 290 290 290 290
307 307 306 306 306 306 306 306 306 306 306 305 305 304 304 303 303 302 302 301 301 300 300 299 297 294 293 292 291 291 290 290 290 290 290 290 290 291 291 291 291 291 291 291 290 290 290 290 290 290 290 290
308 307 307 306 306 306 306 306 306 305 305 305 305 305 304 303 303 303 302 302 301 300 299 299 297 295 294 292 291 291 290 290 290 290 290 290 290 290 290 290 291 290 291 291 291 290 290 290 290 289 289 290
308 308 307 307 307 306 306 306 305 305 305 305 305 305 304 304 303 303 303 302 301 300 300 299 297 296 294 293 291 291 290 290 290 290 289 290 290 290 290 290 290 290 290 290 290 290 290 290 290 289 289 290
309 308 308 308 307 307 306 306 306 305 305 305 305 305 305 304 304 303 303 302 301 300 300 299 298 297 295 293 292 290 290 290 289 289 289 289 289 289 289 289 290 290 290 290 290 290 290 290 290 289 289 289
309 309 308 308 307 307 307 306 306 305 305 305 305 305 304 304 304 303 303 302 302 301 300 299 298 297 296 294 292 290 289 289 289 289 289 289 289 289 289 289 289 289 289 289 289 290 290 290 289 289 289 289
310 309 309 309 308 308 307 307 306 306 306 306 305 305 304 304 304 304 303 303 302 301 300 299 298 297 296 295 292 290 289 289 289 289 289 289 289 289 289 289 289 289 289 289 289 289 289 289 289 289 289 289
310 310 309 309 308 308 307 307 307 306 306 306 305 305 304 304 304 304 303 303 302 301 301 300 299 298 297 296 293 290 289 289 289 289 289 289 289 288 288 288 288 288 288 288 289 289 289 289 288 288 288 288
310 310 309 309 309 308 308 308 307 307 307 306 306 305 305 304 304 304 303 303 302 302 301 301 300 299 298 296 293 291 290 289 289 289 289 288 288 288 288 288 288 288 288 288 288 288 288 288 288 288 288 288
310 310 309 309 309 308 308 308 307 307 307 306 306 306 305 305 304 304 303 303 302 302 301 301 300 300 298 296 294 292 290 289 289 288 288 288 288 288 288 288 288 288 288 288 288 288 288 288 288 287 288 288
309 309 309 309 308 308 308 308 308 307 307 307 306 306 305 305 304 304 303 303 302 302 301 301 300 300 298 296 294 292 290 289 289 288 288 288 287 287 287 287 287 287 287 287 287 288 288 288 287 287 287 287
309 309 309 309 309 308 308 308 308 307 307 307 307 307 306 305 305 304 303 303 302 302 301 301 300 300 298 297 294 292 290 289 289 288 288 287 287 287 287 287 287 287 287 287 287 287 288 288 287 287 287 287
308 308 309 309 308 308 308 308 308 308 308 307 307 307 306 306 305 304 303 303 302 301 301 301 300 300 299 298 295 293 291 289 289 288 288 287 287 287 287 287 287 287 287 287 287 287 287 287 287 287 286 287
307 308 308 308 308 308 308 308 307 307 307 307 307 306 306 306 305 305 304 303 302 301 301 300 300 299 299 298 297 294 292 290 290 289 288 287 287 287 286 286 286 286 286 286 286 287 287 287 287 287 287 287
305 305 306 306 307 307 307 307 307 307 307 306 306 306 306 305 305 304 304 303 302 301 301 300 300 299 298 298 297 296 294 291 290 289 288 287 286 286 286 286 286 286 286 286 286 286 287 287 287 286 287 287
302 303 303 304 305 306 306 306 306 306 306 306 305 305 305 305 304 304 303 303 302 302 301 300 300 299 298 298 297 297 295 292 290 289 288 287 286 286 286 286 286 286 286 286 286 286 286 287 287 286 286 287
301 302 303 303 304 304 305 305 305 305 305 305 305 304 304 304 304 303 303 303 302 302 301 300 300 299 298 297 297 296 295 293 291 289 288 287 286 286 286 286 286 286 286 285 285 285 284 285 286 286 286 286
300 301 302 303 303 303 304 304 304 304 304 304 304 304 304 304 303 303 303 302 302 301 300 300 299 299 298 297 296 296 295 294 292 290 288 287 286 285 285 285 285 285 285 285 285 284 284 284 283 284 285 286
298 299 300 301 302 302 303 303 303 303 303 303 303 303 303 302 302 302 302 302 301 301 300 300 299 298 298 297 296 295 295 294 292 291 289 288 287 286 285 285 285 285 285 285 285 284 284 283 282 283 284 284
297 297 298 298 299 300 300 301 301 301 301 301 301 301 301 301 301 301 301 301 300 300 299 299 299 298 297 296 296 295 295 294 292 291 289 288 287 286 285 285 284 284 285 285 285 285 284 283 282 282 282 282
296 296 296 296 296 296 297 298 299 299 299 299 299 300 300 300 300 300 300 300 299 299 299 298 298 298 297 296 295 295 294 293 292 291 290 288 287 286 285 284 284 284 284 285 285 285 284 284 283 282 281 281

ECMWFFLT2_850_thetae_003.txt.gz
Theta_e
306 307 307 307 306 307 307 306 306 305 304 305 307 309 307 305 302 299 298 298 298 298 299 297 294 293 294 295 296 299 299 298 296 294 294 294 294 295 298 297 294 294 293 292 292 293 293 293 293 293 294 294
307 307 307 307 307 307 307 306 306 306 305 305 304 306 308 306 302 300 299 299 298 298 300 299 295 293 294 296 298 300 300 297 294 292 294 293 293 294 295 293 292 292 292 292 292 293 293 293 293 293 293 293
307 307 307 307 307 307 307 306 307 306 306 306 305 305 305 304 302 302 301 299 299 298 299 298 296 294 294 296 298 300 301 298 294 292 293 293 293 293 293 292 292 292 291 292 292 293 293 293 293 293 293 293
307 307 307 307 307 307 307 307 306 306 306 306 306 305 305 304 304 303 302 301 300 299 299 299 298 295 293 295 296 298 300 300 297 294 292 292 292 292 293 293 292 292 292 292 293 293 293 293 293 293 293 293
307 307 307 307 307 307 307 307 306 306 306 306 306 306 305 305 305 304 303 302 302 301 300 301 299 296 294 294 295 297 299 300 299 296 293 292 292 292 292 292 292 292 292 292 292 292 292 292 292 292 292 292
307 307 307 307 307 307 307 307 306 306 306 306 306 306 306 305 305 305 304 303 303 302 301 302 300 296 295 293 293 295 297 300 300 298 294 292 292 292 292 291 291 291 291 292 292 292 292 292 292 292 292 292
307 307 307 307 307 307 307 307 306 306 306 306 306 305 305 305 305 305 304 304 304 303 302 303 301 297 295 294 293 293 295 298 300 299 296 293 292 292 292 291 290 291 291 291 291 291 291 291 291 291 291 291
306 307 307 307 307 307 307 307 307 306 306 306 306 305 305 305 305 305 304 304 304 304 303 303 302 299 296 295 294 293 293 296 298 297 294 293 292 292 291 291 290 290 290 291 291 291 291 291 291 291 291 291
307 306 307 307 307 307 307 307 307 307 306 306 306 305 305 305 305 304 304 304 304 304 303 303 303 301 299 297 295 294 293 294 294 293 292 292 291 291 291 290 290 290 290 290 290 291 291 290 291 291 291 291
307 306 306 307 307 307 307 307 307 306 306 306 306 306 305 305 305 304 304 304 304 304 303 303 303 302 300 298 296 294 294 293 292 291 290 290 290 290 290 290 290 290 290 290 290 290 290 290 290 290 290 291
307 307 307 307 306 306 306 306 306 306 306 306 306 306 305 305 305 304 304 304 304 303 303 303 302 302 301 299 297 295 293 292 291 290 290 290 290 290 290 290 290 290 290 290 290 290 290 290 290 290 290 290
308 308 307 307 306 306 306 306 306 306 306 306 306 306 306 305 305 304 304 304 303 303 303 303 302 302 301 299 297 295 293 292 291 290 290 290 290 290 290 290 290 289 290 290 289 289 289 289 289 289 290 290
309 308 308 307 307 307 307 306 306 306 306 306 306 306 306 305 305 305 305 304 303 303 303 302 302 301 301 300 298 296 294 292 291 290 290 290 289 289 289 289 289 289 289 289 289 289 289 289 289 289 289 289
309 309 308 308 308 307 307 307 306 306 306 306 306 306 306 305 305 305 305 304 304 303 303 302 302 301 301 300 298 297 294 293 291 290 290 289 289 289 289 289 289 289 289 289 289 289 289 289 289 289 289 289
309 309 309 309 308 308 308 307 307 306 306 306 305 305 305 305 305 305 305 304 304 303 303 302 302 301 301 300 299 298 296 293 291 290 290 289 289 289 289 289 289 289 289 289 289 289 289 289 289 289 289 289
309 309 309 309 308 308 308 308 307 307 306 306 306 305 305 305 305 305 304 304 304 304 303 303 302 302 301 301 300 299 296 294 291 290 290 289 289 289 289 289 289 288 289 289 289 289 289 289 289 289 289 289
307 308 308 308 308 308 308 308 307 307 307 306 306 306 305 305 304 304 304 304 304 304 304 303 303 302 301 301 300 299 297 294 292 290 290 289 289 289 289 289 289 288 288 288 288 288 288 288 288 288 288 288
305 305 306 306 307 307 307 307 307 307 307 307 306 306 306 305 305 304 304 304 303 303 303 303 303 302 302 301 300 299 297 294 292 291 290 289 289 289 289 289 288 288 288 288 288 288 288 288 288 288 288 288
303 303 304 304 305 305 305 306 306 307 307 307 307 306 306 306 305 305 304 304 303 303 303 303 303 303 302 301 300 299 298 295 293 291 290 289 289 289 289 289 288 288 288 288 288 288 288 288 288 288 288 288
302 302 302 303 303 303 304 304 305 305 305 306 306 306 306 305 305 305 304 304 304 303 303 303 303 303 302 302 301 300 298 296 294 292 291 289 289 288 288 288 288 288 288 288 288 288 288 288 288 288 288 288
301 301 301 301 302 302 302 303 303 303 303 303 304 304 304 304 304 304 304 304 303 303 303 303 303 303 302 302 301 300 299 297 295 293 291 290 289 288 288 288 288 288 288 288 288 287 287 288 288 288 288 288
301 301 301 301 301 301 301 301 302 302 302 302 302 302 302 302 302 303 303 303 303 302 303 302 302 302 302 301 301 300 299 298 296 294 292 291 289 288 288 288 288 288 288 287 287 287 287 287 287 287 287 287
300 301 301 300 300 300 300 300 300 301 301 301 302 302 302 302 302 302 302 302 302 302 302 302 302 302 301 301 301 300 300 298 297 295 293 292 291 289 288 288 287 287 287 287 287 287 287 287 287 287 287 287
299 300 300 300 300 300 300 300 299 300 300 300 301 302 302 302 302 302 302 302 302 301 301 301 301 301 301 301 300 300 300 299 298 297 296 294 293 291 289 288 287 287 287 287 286 287 287 287 287 287 287 287
297 298 298 299 299 300 300 299 299 300 300 300 300 301 301 301 302 302 302 302 302 302 302 301 301 301 301 300 300 300 300 299 299 298 297 295 293 291 290 288 287 287 286 286 286 286 286 287 287 287 287 287
297 296 297 297 297 297 298 298 298 299 299 299 299 299 299 300 300 301 302 302 302 302 302 302 301 301 301 301 300 300 300 299 298 297 297 295 293 292 290 289 288 287 286 286 286 286 286 286 287 287 287 287
297 296 296 296 296 296 297 297 297 297 298 298 298 298 298 299 299 300 300 300 301 301 301 301 301 300 300 300 300 300 299 299 298 297 297 296 294 293 291 289 288 287 287 286 286 285 285 286 286 286 287 287
297 297 297 297 296 296 296 296 296 296 296 297 297 297 298 298 298 299 299 299 299 300 300 300 300 300 300 299 299 299 299 299 298 298 297 296 295 294 292 290 289 288 287 286 285 285 285 285 285 286 287 287
295 296 297 297 297 297 297 297 296 296 296 296 296 296 297 298 298 298 298 298 298 299 299 299 299 299 299 299 299 299 299 299 299 298 297 296 296 295 293 292 290 289 288 287 286 285 285 285 285 286 287 287
292 294 295 296 296 296 296 296 295 296 296 296 296 295 296 297 298 298 298 298 298 298 298 298 298 298 298 299 299 299 299 299 298 298 297 296 296 295 294 293 291 289 288 287 286 285 285 285 285 286 286 286
290 291 292 293 293 294 294 294 294 294 295 295 296 296 295 295 296 297 297 297 298 298 298 298 298 298 298 298 298 298 298 298 298 298 297 297 296 295 294 293 291 290 288 287 286 285 285 285 285 285 285 285

ECMWFFLT2_850_thetae_006.txt.gz
Theta_e
306 305 304 302 302 302 302 303 303 303 308 312 312 313 312 311 310 306 305 299 298 305 307 301 293 297 305 306 305 305 305 304 304 304 303 303 303 303 303 303 302 301 299 298 296 293 293 293 292 293 293 293
307 305 305 303 303 303 303 303 303 304 306 309 311 312 311 310 309 304 301 300 298 304 307 305 298 295 302 305 305 305 304 304 304 303 303 303 302 302 302 302 301 299 298 297 294 292 293 292 292 292 292 293
307 306 306 305 304 304 304 304 303 305 305 307 308 309 310 309 307 304 302 301 299 302 305 306 302 296 300 305 305 305 304 304 304 303 303 302 302 302 301 301 300 298 297 295 292 292 292 291 291 292 292 292
307 307 307 306 305 305 305 305 304 305 306 306 306 306 307 307 307 304 303 303 301 301 302 303 302 298 299 304 305 304 304 304 303 303 303 302 301 301 301 300 299 297 296 293 291 291 291 291 291 291 292 292
307 307 307 307 306 306 305 305 305 305 306 306 305 305 305 306 306 305 304 304 302 301 301 301 301 298 296 300 304 304 304 304 304 303 302 301 301 301 300 299 298 295 293 292 291 291 291 291 291 291 291 291
307 307 307 307 306 306 306 305 305 305 305 306 306 306 305 305 305 305 305 304 304 303 302 302 301 299 295 296 300 303 304 303 303 303 302 301 301 301 299 298 296 294 292 291 291 291 291 291 291 291 291 291
306 307 306 306 306 306 306 306 305 305 305 305 307 307 306 306 305 305 305 305 305 304 303 303 302 300 296 294 295 298 302 303 303 303 302 302 301 300 298 296 293 292 291 290 291 291 291 291 291 291 291 291
306 306 306 306 306 306 306 306 306 306 305 305 306 307 306 305 306 305 305 305 305 304 303 303 303 301 297 295 294 294 297 300 301 302 302 302 301 300 297 294 291 291 290 290 290 290 290 290 290 290 291 291
306 306 306 306 306 307 306 306 306 306 306 306 306 306 306 306 306 305 305 305 305 304 304 304 304 303 299 297 297 296 294 296 298 300 301 300 300 299 296 293 291 290 290 289 290 290 290 290 290 290 290 290
307 306 306 306 306 306 307 307 306 307 306 306 306 306 306 306 306 305 305 305 304 304 304 304 304 304 302 300 300 298 296 295 296 297 298 297 297 295 293 291 290 290 290 289 290 290 290 290 290 290 290 290
306 306 306 306 306 306 306 307 306 307 307 306 306 306 306 306 305 305 305 305 305 304 304 304 304 304 303 303 301 300 299 298 297 296 295 294 293 292 291 291 290 290 290 290 290 290 290 290 290 290 290 290
305 306 306 306 306 306 306 306 307 306 307 307 307 306 306 306 306 305 305 305 305 304 304 304 304 304 304 303 302 301 301 300 299 298 296 294 293 292 291 291 290 290 290 290 290 290 290 290 290 290 290 290
305 305 305 305 305 306 306 306 306 306 306 306 306 306 306 306 306 306 305 305 305 305 304 304 304 304 304 303 303 302 301 301 300 299 297 296 294 293 292 291 291 290 290 290 290 290 290 290 290 290 290 290
305 305 305 305 305 305 305 305 305 306 306 306 306 306 306 306 306 306 306 305 305 305 304 304 304 304 304 303 303 302 301 301 301 299 298 297 295 294 292 291 291 290 290 290 290 290 290 290 290 290 290 290
304 304 304 304 305 305 305 304 304 304 305 305 306 306 306 306 306 306 305 305 305 305 305 304 304 304 304 303 303 303 302 301 301 300 299 297 296 294 293 291 291 290 290 290 290 290 290 290 289 289 289 289
302 303 303 303 303 304 304 304 304 303 303 303 304 304 305 305 305 305 305 305 305 305 305 305 304 304 304 304 303 303 302 302 301 300 298 297 296 294 292 291 291 291 290 290 290 290 290 289 289 289 289 289
301 301 301 302 302 302 303 303 304 303 303 303 303 303 303 304 304 304 304 304 305 305 305 304 304 304 304 304 303 303 302 302 301 299 298 297 295 293 292 291 291 291 290 290 290 290 290 289 289 289 289 289
301 301 300 300 301 301 301 302 302 303 303 303 303 303 303 302 302 302 302 302 303 303 304 304 304 304 304 303 303 303 302 302 301 300 298 297 295 294 293 292 291 291 290 289 289 289 289 289 289 289 289 289
300 301 301 300 300 300 300 301 301 301 302 302 302 303 303 303 302 302 301 301 301 302 302 302 303 303 303 303 303 302 302 302 301 300 299 298 296 295 294 292 291 291 290 289 289 289 289 289 289 288 288 288
298 299 300 300 300 300 300 300 300 300 300 301 301 302 302 302 302 302 302 302 302 301 301 301 302 302 302 302 302 302 301 301 301 301 300 299 297 296 295 293 292 291 290 289 289 289 289 288 288 288 288 288
297 297 298 298 299 300 300 300 300 299 299 300 300 300 301 301 302 302 302 302 302 302 301 301 301 301 301 301 301 301 300 300 300 300 300 299 298 297 296 294 292 291 290 289 289 289 288 288 288 288 288 288
297 297 297 297 297 298 298 299 299 299 299 298 299 299 299 300 301 301 301 301 301 301 301 301 301 301 301 301 300 300 300 299 300 300 300 300 299 298 296 295 294 292 291 290 289 289 288 288 288 288 288 288
296 297 297 297 297 297 297 297 297 298 298 298 298 298 298 298 299 299 300 300 300 301 301 301 301 301 301 301 300 300 299 299 299 299 299 299 299 298 296 295 295 293 291 290 289 288 288 288 288 288 288 288
292 294 295 297 297 297 296 296 296 297 297 297 297 297 297 297 297 298 298 299 299 299 300 300 300 300 301 301 300 300 300 299 299 298 298 298 298 298 296 294 293 292 290 289 288 288 288 288 288 287 287 287
290 291 292 294 295 296 296 296 296 296 296 296 296 297 297 297 297 297 297 297 298 298 298 298 299 299 299 300 300 300 300 299 299 298 298 298 298 297 296 295 293 292 290 288 287 287 287 287 287 287 287 287
289 289 290 291 291 293 294 295 296 296 296 296 296 296 296 296 296 296 296 296 296 296 297 297 297 298 298 298 299 299 299 299 298 298 297 296 296 296 296 295 294 294 291 289 288 287 287 287 287 286 286 286
288 288 289 290 290 290 292 293 295 295 296 296 296 296 296 296 296 296 297 296 295 295 296 296 296 297 297 297 298 298 298 298 298 298 297 296 296 296 296 294 294 294 292 290 288 287 287 287 287 287 287 286
287 288 288 289 290 290 290 291 293 294 295 295 295 295 295 296 296 296 296 297 297 296 296 295 295 295 296 296 296 297 297 297 297 297 297 297 296 295 295 294 293 294 294 291 288 287 287 287 287 288 288 287
287 287 288 289 289 289 290 291 291 292 292 292 293 294 294 295 295 296 296 296 297 297 297 296 295 294 294 295 295 295 295 296 296 296 297 297 296 296 296 295 294 295 295 292 290 289 288 288 288 288 288 287
287 288 289 289 290 290 290 291 291 291 291 291 291 292 293 294 295 295 296 296 296 296 298 298 297 295 294 294 294 294 294 294 295 295 296 296 295 295 296 295 295 295 295 293 292 291 290 289 289 289 288 287
288 288 289 289 289 290 290 291 291 291 291 291 291 291 292 293 294 295 295 296 295 295 296 297 298 297 295 293 293 294 294 294 294 294 295 295 295 295 295 295 294 294 295 294 292 292 290 289 290 289 287 288

ECMWFFLT2_850_thetae_012.txt.gz
Theta_e
316 316 315 311 306 308 311 313 311 307 311 316 315 315 316 315 314 313 313 313 312 312 311 310 309 309 309 308 309 309 311 312 312 312 311 311 310 310 309 309 309 309 308 307 304 298 294 294 294 295 295 295
314 313 312 310 306 306 309 310 309 306 310 315 315 315 315 315 314 313 313 313 312 312 311 310 309 309 309 308 308 309 310 311 311 311 311 310 310 309 309 308 308 308 307 307 305 301 296 294 294 294 294 295
313 311 309 308 306 305 306 306 307 309 312 315 315 314 314 315 314 313 313 312 312 311 311 310 309 309 308 308 308 309 309 310 310 311 310 309 309 309 308 308 308 307 307 306 305 304 299 294 294 294 294 295
314 312 310 308 306 305 304 303 305 308 312 314 315 314 314 315 314 313 313 312 312 311 310 310 309 309 308 308 308 308 309 309 309 310 309 308 308 307 307 307 307 306 306 306 305 304 300 295 294 294 294 294
316 315 313 312 310 307 304 303 303 306 310 312 314 314 314 314 314 313 313 312 311 311 310 310 309 308 307 308 309 308 309 309 308 308 308 307 307 307 307 306 306 305 305 305 304 303 298 294 294 294 294 294
317 317 317 316 315 313 309 305 303 305 308 309 311 313 314 314 314 313 313 312 312 311 310 309 309 308 306 307 309 309 308 308 308 308 307 307 306 306 306 305 305 305 305 304 303 301 295 293 294 294 294 294
315 316 316 317 316 315 313 309 305 304 306 307 308 311 313 314 314 314 313 312 312 311 310 309 309 309 306 306 308 309 308 308 308 308 307 307 306 306 305 305 305 304 304 303 303 300 294 293 293 293 293 293
313 314 315 315 316 315 314 312 308 306 305 306 305 307 310 313 314 314 313 312 312 311 310 309 308 309 307 305 308 308 308 308 307 307 307 307 306 305 305 304 304 304 304 303 303 300 294 292 293 293 293 293
309 311 313 313 315 315 314 314 313 311 308 306 304 305 308 311 313 313 313 312 312 311 310 309 308 308 308 306 307 308 307 307 307 307 307 306 306 305 304 304 304 303 303 303 302 298 293 292 293 293 293 293
306 307 309 311 312 313 314 314 314 314 313 310 306 305 307 310 312 312 312 312 311 311 311 310 309 308 307 305 305 307 307 306 306 306 306 306 305 305 304 304 303 303 302 301 298 295 292 292 293 292 292 292
305 305 306 307 309 311 312 313 314 314 314 313 311 308 308 309 312 312 312 312 312 311 311 311 310 308 307 305 303 305 307 306 305 306 306 305 305 305 304 304 303 303 301 298 295 293 293 293 293 293 292 292
304 305 305 306 307 308 310 312 313 314 314 314 313 312 310 310 311 312 312 311 311 311 311 311 311 309 307 306 303 302 304 305 305 305 305 305 305 304 304 304 303 302 301 298 297 295 293 293 293 293 292 292
302 303 304 305 305 306 307 309 311 312 313 314 314 313 313 311 311 311 312 312 311 311 311 311 311 309 307 307 304 301 301 302 304 304 304 304 304 304 304 304 303 303 302 300 299 297 295 294 294 293 293 292
297 299 301 303 303 304 305 307 308 309 311 312 313 313 313 313 312 312 312 313 312 311 311 311 311 309 307 307 305 302 300 300 302 303 303 303 303 304 304 304 303 303 302 301 300 298 296 295 294 294 293 293
293 294 296 298 300 302 304 305 306 307 309 310 311 312 312 313 313 312 312 312 312 311 311 311 311 309 308 307 306 303 301 300 301 301 302 302 303 303 303 303 303 302 302 301 300 299 297 295 294 294 294 293
292 292 293 295 296 298 300 302 304 305 306 308 309 310 310 311 311 312 312 312 312 311 311 311 311 310 308 307 306 304 302 301 300 300 301 301 302 303 303 303 302 302 301 301 300 299 297 296 295 295 294 294
292 292 292 293 294 295 297 298 300 302 303 305 307 308 309 309 310 310 311 311 311 311 311 310 310 310 308 307 306 304 303 302 301 301 300 300 301 302 302 302 301 301 301 301 300 299 298 297 296 295 295 295
292 292 292 292 292 293 294 296 297 299 300 302 303 305 307 307 308 309 309 310 310 311 310 310 310 310 309 307 306 305 303 302 301 301 300 300 301 301 301 301 301 301 301 301 300 300 299 298 297 296 296 296
291 291 292 292 291 291 292 294 296 298 298 299 301 302 304 305 306 306 307 308 309 310 310 310 309 309 309 308 307 305 304 303 302 301 301 300 301 301 300 300 300 300 301 301 301 301 300 300 298 297 297 297
291 291 291 291 291 291 291 292 294 297 298 298 298 299 301 303 304 305 305 305 306 308 309 309 309 308 308 308 307 306 305 304 303 302 301 300 300 300 300 300 300 300 300 300 300 301 301 300 299 298 298 297
290 291 291 290 290 290 291 291 291 294 297 297 297 298 298 300 302 303 304 304 304 305 307 308 308 307 307 307 306 306 305 304 303 302 301 300 300 299 299 300 300 300 300 299 299 299 300 300 300 300 299 298
290 291 291 290 290 290 291 291 290 291 293 295 296 297 297 298 299 300 302 303 303 303 304 305 307 307 306 306 306 305 305 304 304 303 302 301 300 299 299 299 299 299 299 299 299 298 299 299 300 300 299 297
291 291 290 290 290 290 290 290 291 291 291 291 293 296 297 297 297 298 299 301 303 303 303 303 304 305 305 305 305 305 304 304 303 303 302 301 300 299 299 299 298 298 299 298 298 297 297 297 298 298 297 296
291 291 290 290 290 290 290 290 291 291 292 291 291 293 296 296 296 297 297 298 300 302 302 302 302 302 303 304 304 304 304 303 303 302 302 301 300 299 298 298 297 297 297 296 295 295 294 294 294 294 295 295
291 291 291 290 290 290 290 290 291 291 292 293 292 292 293 294 295 296 296 297 298 299 300 301 301 301 302 302 302 302 302 303 303 302 301 301 300 299 298 297 297 296 295 294 293 292 291 291 291 291 292 293
290 290 290 290 290 290 290 290 290 291 291 292 293 292 292 292 293 294 294 295 296 297 298 298 300 300 301 301 301 301 301 301 302 301 301 300 299 298 298 297 297 296 294 293 293 292 290 289 289 290 290 291
290 290 290 290 289 289 289 289 289 289 290 290 290 291 292 292 293 293 293 294 295 296 296 297 297 298 299 300 300 300 300 300 300 300 299 299 299 298 297 296 296 295 295 294 293 291 290 290 289 288 289 290
289 289 289 289 289 289 289 289 289 289 289 289 289 290 292 293 294 293 293 293 293 294 295 296 297 297 297 297 298 299 300 299 299 299 299 298 298 297 296 295 295 294 294 294 293 291 290 290 289 289 290 291
289 289 289 289 289 289 289 289 289 289 289 289 289 289 291 292 293 292 292 292 292 293 294 295 296 296 297 296 296 297 299 299 299 298 298 297 297 296 296 295 294 293 293 293 293 293 292 291 290 290 292 291
289 289 289 289 289 289 289 289 289 289 289 289 289 289 289 290 290 291 291 292 292 292 292 293 294 295 296 296 296 296 297 298 298 298 297 297 296 296 295 295 294 293 292 292 292 293 293 294 294 294 293 292
289 289 288 288 288 288 289 289 289 289 289 289 289 289 289 289 289 289 290 291 292 292 292 292 293 294 295 296 296 296 295 296 297 297 297 296 296 295 295 294 294 293 292 291 291 291 292 293 295 295 295 294

ECMWFFLT2_850_thetae_015.txt.gz
Theta_e
319 319 318 317 317 316 316 316 316 316 316 315 316 316 315 316 316 315 315 314 314 314 314 313 312 311 311 310 310 311 311 313 314 314 313 313 312 312 312 313 312 311 309 309 307 299 295 294 294 294 294 294
318 319 318 317 317 316 316 316 316 315 315 315 315 315 315 316 316 316 315 314 314 314 314 313 312 311 310 310 310 311 311 312 313 314 313 313 312 311 311 312 311 311 310 309 308 304 300 296 294 294 294 294
317 318 317 317 316 315 315 314 315 315 314 314 313 314 315 316 316 315 315 314 314 313 314 313 312 311 310 310 310 310 310 311 312 313 313 313 312 311 310 311 311 311 310 309 308 306 305 302 298 295 293 294
317 317 317 316 314 314 314 312 312 313 313 312 311 313 316 316 316 316 315 314 313 313 313 312 311 311 310 310 310 310 310 311 312 313 313 312 312 311 310 310 310 310 310 309 308 307 306 304 301 298 294 294
315 316 316 317 316 315 316 314 312 310 309 310 311 312 315 316 316 316 314 314 313 313 312 311 311 311 310 310 309 309 310 310 311 312 313 312 311 311 310 310 309 309 309 308 308 307 307 305 304 301 297 294
313 313 314 315 316 317 317 316 315 312 309 308 309 311 314 316 316 315 314 314 314 313 312 311 311 311 310 310 310 309 309 310 310 311 312 312 311 310 310 309 309 309 308 308 308 307 306 306 304 304 301 296
311 312 312 313 314 315 315 316 316 316 314 310 308 308 312 315 315 315 314 315 314 313 313 312 311 310 310 309 309 309 309 309 310 311 311 311 311 309 309 309 309 308 308 307 307 306 306 305 305 304 301 295
311 311 312 312 312 312 313 314 314 315 315 313 310 307 308 312 314 315 314 314 314 314 313 312 311 311 310 309 309 309 309 309 309 310 310 310 310 308 308 308 308 307 307 307 306 305 305 304 304 301 296 293
308 309 311 312 312 312 311 311 312 313 314 314 313 310 308 309 311 313 314 314 313 313 313 312 311 311 310 310 309 308 309 309 308 309 310 310 309 308 307 307 307 306 306 306 305 305 304 304 302 298 293 293
303 305 307 309 310 311 311 311 310 311 312 313 314 313 311 309 309 310 312 313 313 313 313 312 311 311 311 310 309 308 308 309 309 308 309 309 309 308 307 306 306 306 305 305 304 304 303 303 301 296 293 293
297 300 302 304 306 308 309 310 310 310 311 311 312 313 313 312 310 308 309 311 312 313 313 313 312 311 310 310 309 308 307 309 309 308 308 309 308 308 307 306 305 305 305 304 304 304 303 302 300 296 293 293
294 295 296 298 300 303 305 307 309 310 310 310 311 312 313 313 312 310 308 308 310 312 313 313 312 311 310 310 309 308 306 308 309 308 308 308 308 307 306 306 305 305 305 305 304 303 302 300 297 295 293 294
294 294 294 294 295 296 299 302 305 308 309 309 310 310 311 312 312 312 310 308 309 311 312 313 312 311 311 310 310 308 307 307 309 308 308 307 307 307 306 306 305 305 305 305 304 303 300 297 295 294 294 295
293 293 293 293 293 293 294 296 298 302 306 308 309 309 310 310 311 312 312 310 311 311 312 312 312 311 311 310 310 310 309 307 307 308 308 307 307 307 306 306 305 305 305 305 304 303 300 298 297 296 295 296
292 292 292 292 292 293 293 293 294 295 298 302 306 308 309 309 309 310 310 311 311 312 312 312 312 312 311 310 310 310 310 309 307 306 307 307 306 306 306 305 305 305 305 304 304 304 302 301 300 299 297 297
291 291 291 291 291 292 292 292 293 293 293 295 298 302 306 308 308 308 308 309 310 310 311 311 311 311 311 311 310 310 310 310 308 305 305 307 307 306 306 305 305 305 304 304 304 304 303 303 302 301 300 299
290 290 290 290 291 291 291 291 292 292 292 293 293 295 299 303 307 308 307 307 307 308 309 311 311 311 311 311 311 311 310 310 310 307 305 306 307 306 306 305 305 305 304 304 304 303 303 303 303 303 302 301
289 290 290 290 290 290 290 290 291 291 291 292 292 293 294 296 300 304 307 307 306 307 307 308 309 310 310 310 310 311 310 310 310 308 306 305 306 306 306 305 305 304 304 304 303 303 303 302 302 302 302 302
289 289 289 289 289 289 289 290 290 290 291 291 292 292 292 293 294 298 302 305 306 306 306 306 307 308 309 310 309 309 310 310 310 309 307 305 305 306 306 305 305 304 303 303 303 303 302 302 302 302 302 302
289 289 290 290 290 290 290 289 289 290 290 290 291 292 293 292 292 294 296 300 303 304 305 305 305 306 307 308 309 309 309 309 309 309 308 306 304 304 305 305 304 303 303 302 302 302 302 302 302 302 302 302
289 290 290 290 290 290 290 290 290 290 290 290 290 292 293 294 293 293 294 297 300 302 304 304 304 305 306 306 307 308 308 308 308 308 308 307 305 304 303 304 304 303 302 302 302 302 302 302 301 301 301 301
289 289 290 290 291 291 290 290 290 290 289 289 290 290 292 294 295 294 294 295 298 300 302 303 304 304 305 305 306 307 308 308 308 308 308 308 307 305 303 302 302 302 302 302 302 301 301 301 301 301 301 301
288 288 289 289 290 290 290 290 290 289 289 289 290 290 290 291 293 294 295 296 297 298 299 301 303 303 303 304 304 305 306 307 307 307 308 307 307 306 304 303 302 301 301 301 301 301 301 301 301 301 300 300
288 288 289 289 289 290 290 290 289 289 289 289 289 289 290 290 291 293 295 296 296 297 297 298 300 302 303 303 303 303 304 305 305 306 307 307 306 305 304 303 302 302 301 301 301 301 301 301 300 300 299 299
288 288 288 289 289 289 289 289 289 289 289 289 289 289 289 290 290 291 292 294 294 295 296 296 297 299 301 302 302 302 303 303 303 304 305 305 305 305 304 303 303 302 301 302 301 301 301 300 299 299 298 298
288 288 288 289 289 289 289 289 289 289 289 289 289 289 289 289 289 289 289 291 292 293 294 294 295 296 297 299 301 301 302 302 302 302 303 303 303 303 304 303 303 302 302 302 301 301 300 298 298 297 297 296
288 288 288 289 289 289 289 289 289 288 288 289 289 289 289 289 288 288 288 290 292 293 293 293 293 294 295 296 298 299 301 301 301 301 302 302 301 301 301 302 302 302 302 301 300 299 297 296 296 294 294 295
288 288 288 289 289 288 288 288 288 288 288 288 288 288 288 288 289 288 288 289 292 293 293 293 293 293 293 294 295 296 298 300 300 300 300 301 301 300 299 299 299 300 301 300 299 297 295 294 292 291 293 294
287 288 288 288 288 288 288 288 288 288 288 288 288 288 288 288 288 288 288 288 289 290 291 292 292 292 292 293 294 294 295 297 299 300 300 300 300 300 298 298 298 298 298 299 299 298 295 292 290 291 293 293
287 287 287 288 288 287 287 287 287 288 288 288 288 288 288 288 288 288 288 288 288 288 288 289 291 291 292 292 292 293 294 295 296 298 299 299 299 299 299 298 297 296 296 297 297 297 297 295 294 294 293 291
286 287 287 287 287 287 287 287 287 287 287 288 288 288 288 288 288 288 288 288 288 288 287 288 288 289 291 292 292 292 293 294 295 296 297 297 297 298 298 297 296 295 295 295 295 295 295 296 296 295 294 293

ECMWFFLT2_850_thetae_018.txt.gz
Theta_e
319 320 321 320 319 319 318 317 317 318 318 317 317 316 316 317 317 317 317 316 316 315 315 315 315 313 312 312 312 312 313 314 315 315 316 316 315 314 312 312 314 313 311 310 311 307 297 293 293 293 293 294
318 320 320 320 319 319 318 316 316 316 316 316 317 316 316 316 316 317 317 316 316 314 314 315 315 314 312 312 312 312 312 313 314 315 316 316 314 314 313 312 313 313 312 311 311 310 302 293 293 293 293 293
317 318 318 319 319 319 318 317 316 315 314 314 315 315 316 316 316 316 316 316 316 314 314 314 315 314 312 312 312 311 312 312 313 314 314 315 314 314 313 312 312 313 312 311 311 311 306 297 293 293 292 292
315 315 316 317 317 318 318 317 316 315 314 313 312 312 313 315 316 316 316 316 316 315 314 314 315 314 312 312 312 311 311 312 313 313 314 314 314 314 313 312 312 313 312 312 311 310 309 302 297 296 295 293
312 313 313 314 315 316 316 316 316 316 315 314 312 310 310 312 314 316 316 316 316 315 314 314 314 314 313 311 311 311 311 311 312 313 313 314 314 314 313 312 311 312 312 312 311 310 310 306 303 302 299 296
310 311 311 312 313 313 314 315 315 315 315 315 314 312 310 309 310 313 314 316 316 315 315 314 313 313 313 312 311 311 311 311 311 312 313 313 314 314 313 312 311 311 312 311 311 310 310 309 307 306 303 300
306 307 309 310 310 311 312 312 313 314 314 314 315 314 312 310 309 310 313 315 315 315 315 314 313 313 312 312 311 310 311 311 310 311 312 312 314 314 313 312 310 310 311 311 311 310 310 309 308 307 306 303
299 301 303 305 306 308 309 310 311 312 312 312 313 314 314 313 311 310 312 314 314 315 315 314 314 313 312 311 311 310 310 311 310 310 311 312 313 313 313 312 311 310 310 310 310 310 309 308 308 307 306 305
296 296 297 299 300 302 304 307 308 309 310 310 311 312 313 314 313 312 311 313 313 314 314 314 314 313 313 312 311 310 309 310 309 309 310 311 312 313 312 311 311 310 310 309 309 309 308 308 307 307 306 305
295 295 295 295 296 296 298 300 302 304 306 308 309 310 311 312 313 313 312 312 312 313 313 313 314 313 313 312 312 311 310 309 309 309 310 310 311 312 312 311 311 310 309 308 308 308 308 307 307 306 306 305
295 295 295 295 295 295 295 295 296 297 299 302 305 307 309 309 310 311 311 312 312 312 312 312 313 313 313 313 313 312 311 310 309 308 308 310 310 311 312 311 311 310 309 308 307 307 307 307 306 306 305 304
293 294 294 294 294 295 294 294 294 294 295 296 298 301 304 306 308 309 309 310 311 312 312 312 312 313 313 313 313 312 312 311 310 309 308 308 309 310 311 311 311 310 309 307 307 307 307 306 305 305 304 304
292 292 292 293 293 294 294 294 294 294 294 294 294 295 298 301 304 306 307 308 309 311 312 312 312 312 312 313 313 313 312 311 310 309 308 308 308 309 310 310 310 310 308 307 307 307 306 306 305 305 304 303
290 291 291 291 291 292 292 292 293 293 293 293 293 293 294 295 297 300 304 306 307 308 309 310 311 311 312 312 312 312 313 312 311 310 309 308 307 308 309 310 310 310 309 308 307 306 306 305 305 304 304 302
289 290 290 290 290 290 290 291 291 292 292 292 292 292 293 293 294 295 298 301 304 305 307 308 309 311 311 311 311 312 312 313 312 310 309 309 307 307 308 309 309 309 309 308 307 307 306 305 305 304 303 301
288 288 288 289 289 289 289 289 290 290 290 291 291 291 292 292 293 293 294 296 299 302 304 306 307 308 310 310 311 311 312 312 312 311 310 310 308 307 307 308 309 309 309 308 308 307 306 305 305 304 303 299
288 288 288 288 288 289 289 289 289 289 289 290 290 290 291 291 292 292 293 293 295 298 301 303 305 306 307 308 310 311 311 311 312 311 310 311 309 307 307 307 308 308 308 308 307 306 306 305 305 304 303 298
288 288 288 288 288 289 289 289 289 289 289 289 289 289 290 290 291 291 292 292 293 295 297 300 302 304 305 306 307 309 309 310 311 310 310 311 310 308 307 307 307 307 307 307 306 306 306 305 305 304 303 299
287 287 287 288 288 289 289 289 289 289 289 289 289 289 289 289 290 291 291 292 293 294 295 297 299 301 303 304 305 307 307 308 310 310 310 310 310 309 308 307 307 307 307 306 306 305 305 305 305 304 304 302
287 287 287 287 288 288 289 289 289 289 289 289 289 289 289 289 290 290 291 293 294 294 295 296 297 298 300 302 304 305 307 307 308 309 310 309 309 310 309 308 307 307 306 306 305 305 304 304 304 304 304 303
287 287 287 287 287 287 288 288 289 289 289 289 289 289 289 289 289 289 290 291 293 294 294 295 295 296 298 300 302 304 306 307 307 308 308 308 309 309 309 308 308 307 306 306 305 305 304 304 304 304 303 303
287 287 287 287 287 287 288 288 288 288 289 289 289 289 289 288 288 289 289 289 290 292 293 294 294 295 295 297 299 302 304 306 307 307 308 308 308 308 308 308 308 307 306 305 305 305 305 303 303 303 303 303
286 287 287 287 287 287 288 288 288 289 289 289 289 289 289 288 288 288 288 288 289 289 290 291 293 294 294 295 296 298 301 304 305 306 307 308 308 308 308 308 308 307 306 305 305 305 305 304 303 302 302 303
286 286 286 287 287 288 288 288 289 289 289 289 289 289 288 288 288 288 288 288 288 288 289 289 290 291 292 293 294 295 297 300 303 304 305 306 307 308 307 307 307 307 306 306 305 305 305 305 304 303 302 302
285 285 285 286 287 288 288 288 288 288 289 289 288 288 288 288 288 288 288 288 288 288 288 288 288 289 291 292 293 293 294 296 299 302 302 303 304 306 307 307 307 307 306 306 305 305 305 305 305 304 302 301
285 285 285 285 286 287 287 287 287 287 288 288 288 288 288 288 288 288 288 288 288 288 288 288 287 288 291 292 293 293 293 293 295 298 301 301 302 303 304 305 306 305 305 305 305 305 304 304 304 304 303 302
285 285 285 285 285 286 286 286 286 287 287 287 287 287 287 288 288 288 288 288 288 288 288 288 288 288 290 291 292 292 292 292 293 295 298 299 300 300 301 303 304 303 303 304 304 303 302 301 302 301 301 302
285 285 285 285 285 285 285 285 285 286 286 287 287 287 287 287 287 287 288 288 288 288 288 288 288 288 288 289 290 291 291 292 292 293 294 296 298 298 299 300 302 302 302 302 302 300 299 300 299 298 300 302
285 285 285 285 285 284 284 284 284 285 285 286 286 286 286 286 287 287 287 287 287 288 288 288 288 288 288 287 288 288 289 290 291 292 293 294 295 296 297 298 299 301 301 301 300 300 299 298 297 298 300 300
285 285 285 284 284 284 284 284 284 285 285 286 286 286 285 285 285 286 286 287 287 287 288 288 288 288 288 288 287 287 287 288 290 291 292 292 293 294 296 296 297 298 300 300 300 299 299 299 299 299 299 297
284 284 284 283 283 283 284 285 284 285 285 285 285 285 285 285 285 285 286 287 287 287 288 288 288 288 288 288 287 287 287 287 287 289 291 292 292 293 294 295 295 296 298 299 299 298 299 299 300 299 298 298